Vertical_Velocity
-2 -1 -7 6 2 -3 1 1 1 0 -1 0 -3 3 2 -0 -0 -1 -0 -0 -3 -1 -2 -3 1 -1 -1 2 4 2 -1 10
-4 4 3 1 -0 -2 1 0 0 -1 -2 -2 -2 1 2 0 -3 -3 2 3 0 1 -5 -4 3 1 2 1 -1 4 4 6
-3 5 7 1 -0 0 1 -1 1 1 -2 -1 -3 -3 -0 1 1 -1 -1 4 -2 1 0 -3 7 8 3 5 3 8 10 -1
-4 5 4 -1 -0 -0 1 -2 -2 1 -0 -4 -3 -2 -2 -4 -2 -0 2 1 -3 0 -1 3 5 4 0 2 3 4 2 -1
-4 3 3 -3 -0 -2 1 -1 -1 -0 -0 1 -1 -2 2 -1 -3 -1 -5 2 5 -2 -2 -0 2 -3 -3 4 3 1 -2 -1
-6 5 -2 -2 2 -2 1 0 -1 -1 0 -0 1 -1 -2 -3 1 -3 5 -1 -4 -2 0 2 2 5 3 -2 1 3 3 -0
3 2 -6 4 -0 -1 1 -1 -3 0 -0 -1 -1 1 3 -1 -1 -0 -1 -2 3 -0 -1 0 2 5 2 6 8 3 -2 -1
6 7 -3 2 0 -1 0 -1 -2 1 -2 -0 -2 -2 -1 -1 -2 1 2 0 4 -2 -0 1 4 -1 1 1 2 -1 -1 1
6 6 1 -1 1 0 -0 -1 0 -2 -2 0 -1 2 1 -1 -1 -2 -0 -2 1 2 4 6 4 -1 3 -2 3 -2 -0 0
2 -0 5 2 -2 3 1 1 -1 -2 -2 -4 2 -1 -3 -5 -3 1 5 2 1 -1 -3 1 2 1 1 2 -2 -0 3 -0
-2 -1 3 2 1 1 4 2 -2 -0 -1 -3 -2 2 0 1 1 0 -2 -1 1 4 4 2 3 1 4 -1 -1 -0 -3 -1
-0 6 1 3 2 1 2 2 1 -1 -1 -2 -3 2 2 1 1 -1 -1 0 1 2 1 4 3 -2 -0 0 0 -3 -3 -2
-12 -2 3 4 4 -0 1 1 1 -2 -1 -2 0 -6 0 -1 1 2 2 0 1 0 -1 0 -1 1 1 1 -1 -2 3 4
-4 -0 4 5 2 3 2 1 1 0 -0 1 -4 4 -5 0 1 2 -1 1 1 2 3 3 1 1 3 3 -1 -2 1 0
-2 -5 2 6 3 1 4 2 3 1 3 -1 -0 -2 0 -3 -3 -3 -3 -1 0 -0 1 1 1 2 -2 -1 -0 1 2 3
4 -6 -6 4 4 1 5 3 3 1 0 2 -1 -5 -2 0 1 -1 0 1 -4 -2 -0 0 -1 0 -1 -1 2 3 3 2
-3 2 -13 -0 -3 -4 -3 1 -1 1 -1 -1 -4 1 -1 -1 -0 0 3 -0 1 -2 -4 -3 -2 -0 -0 1 0 -2 -2 1
-3 -10 11 -2 13 15 8 3 -2 -4 -0 2 -1 -1 2 2 1 1 -2 -2 1 2 4 -0 -2 -1 2 -0 -1 -1 -1 -1
5 1 -1 -5 -4 5 4 6 4 5 -1 -4 -3 0 1 -1 1 1 3 -0 -2 -2 -2 -1 1 2 1 1 -0 -0 -1 1
Height
5735 5732 5729 5729 5727 5723 5722 5721 5719 5718 5716 5715 5712 5712 5712 5712 5715 5719 5720 5724 5726 5731 5733 5738 5741 5748 5752 5756 5759 5763 5766 5769
5728 5729 5724 5725 5722 5719 5718 5716 5715 5713 5711 5707 5705 5705 5706 5707 5711 5715 5716 5719 5722 5724 5727 5732 5736 5742 5746 5750 5754 5757 5761 5764
5721 5724 5720 5719 5717 5716 5713 5712 5711 5709 5706 5701 5699 5699 5701 5703 5706 5709 5711 5713 5716 5718 5722 5726 5732 5735 5741 5744 5749 5752 5755 5756
5714 5717 5714 5714 5713 5711 5710 5709 5708 5706 5703 5698 5696 5695 5696 5698 5701 5704 5705 5707 5709 5713 5717 5723 5726 5732 5736 5739 5743 5746 5748 5751
5709 5711 5709 5709 5709 5708 5706 5705 5704 5702 5700 5697 5694 5692 5693 5694 5695 5696 5697 5700 5705 5708 5712 5717 5722 5726 5729 5734 5735 5737 5740 5745
5702 5706 5704 5705 5706 5705 5703 5702 5701 5699 5697 5695 5692 5690 5690 5691 5692 5692 5692 5696 5698 5702 5708 5711 5716 5720 5723 5725 5727 5731 5734 5737
5698 5700 5699 5700 5701 5700 5699 5698 5698 5696 5695 5692 5689 5685 5685 5688 5688 5690 5691 5693 5696 5697 5700 5705 5710 5713 5716 5719 5722 5726 5729 5732
5693 5695 5695 5696 5696 5696 5696 5695 5695 5694 5692 5690 5686 5682 5682 5684 5685 5687 5689 5692 5693 5695 5697 5702 5706 5710 5712 5716 5719 5723 5725 5729
5687 5690 5690 5692 5692 5693 5693 5692 5692 5691 5690 5688 5687 5684 5681 5681 5685 5686 5688 5690 5692 5695 5698 5702 5704 5707 5709 5711 5715 5718 5722 5726
5680 5683 5685 5687 5688 5689 5689 5689 5689 5689 5688 5686 5685 5685 5684 5683 5684 5685 5686 5688 5690 5692 5694 5697 5700 5702 5705 5707 5711 5715 5719 5722
5673 5676 5679 5681 5683 5683 5685 5685 5685 5685 5686 5685 5684 5684 5684 5684 5684 5684 5686 5688 5689 5692 5694 5696 5699 5702 5704 5706 5708 5711 5714 5718
5665 5671 5673 5675 5678 5679 5680 5681 5682 5683 5682 5683 5683 5683 5685 5685 5685 5685 5686 5688 5689 5692 5694 5696 5698 5700 5702 5703 5706 5706 5708 5712
5657 5662 5666 5669 5672 5674 5675 5677 5678 5679 5680 5678 5680 5681 5681 5684 5685 5686 5686 5686 5688 5691 5693 5694 5696 5698 5699 5700 5701 5703 5704 5705
5652 5657 5660 5664 5666 5669 5670 5672 5674 5675 5677 5677 5676 5677 5680 5680 5682 5684 5684 5685 5686 5687 5688 5689 5690 5692 5694 5694 5694 5694 5696 5699
5647 5650 5652 5657 5660 5662 5665 5666 5669 5670 5672 5674 5675 5674 5674 5677 5678 5679 5681 5682 5683 5684 5684 5685 5686 5686 5686 5686 5687 5688 5690 5692
5643 5641 5646 5650 5653 5655 5658 5661 5663 5665 5667 5669 5670 5671 5672 5672 5672 5673 5674 5676 5677 5677 5678 5679 5679 5679 5680 5680 5680 5682 5682 5683
5634 5639 5636 5640 5647 5649 5650 5654 5656 5659 5661 5662 5664 5665 5666 5667 5668 5667 5668 5668 5669 5670 5671 5672 5672 5673 5675 5675 5674 5675 5675 5675
5628 5628 5636 5636 5639 5643 5645 5648 5649 5651 5654 5657 5657 5658 5659 5659 5660 5661 5662 5662 5661 5663 5663 5662 5663 5664 5666 5666 5665 5665 5666 5667
5619 5622 5625 5629 5630 5630 5635 5638 5641 5642 5644 5647 5650 5652 5652 5651 5652 5654 5654 5653 5654 5654 5654 5654 5655 5655 5655 5656 5655 5655 5655 5655